Regional Weather Roundup
Issued by NWS

Home | Current Version | Previous Version | Text Only | Print | Product List | Glossary On
Versions: 1 2 3 4 5 6 7 8 9 10 11 12 13 14 15 16 17 18 19 20 21 22 23 24 25 26 27 28 29 30 31 32 33 34 35 36 37 38 39 40 41 42 43 44 45 46 47 48 49 50
000
ASUS43 KTOP 280459
RWRKS

WEATHER ROUNDUP FOR KANSAS
NATIONAL WEATHER SERVICE GOODLAND KS
1200 AM CDT FRI AUG 28 2015

NOTE:  "FAIR" INDICATES FEW OR NO CLOUDS BELOW 12,000 FEET WITH NO
SIGNIFICANT WEATHER AND/OR OBSTRUCTIONS TO VISIBILITY.

KSZ001>006-013>018-027>032-041>047-280600-
NORTHWEST KANSAS

CITY           SKY/WX    TMP DP  RH WIND       PRES   REMARKS
GOODLAND       PTCLDY    71  60  68 NW14      30.01R
HAYS           MOCLDY    81  61  50 S23G33    29.88R
HILL CITY      LGT RAIN  77  64  64 SW12      29.87S
RUSSELL        MOCLDY    77  68  73 S21G28    29.87R
$$

KSZ061>065-074>080-084>089-280600-
SOUTHWEST KANSAS

CITY           SKY/WX    TMP DP  RH WIND       PRES   REMARKS
DODGE CITY     RAIN      70  63  78 SE10      30.01R
ELKHART          N/A     70  61  73 W8          N/A
GARDEN CITY    CLOUDY    70  63  78 SE13      29.94S
GREAT BEND     CLOUDY    73  66  78 S17       29.92S
LIBERAL        CLOUDY    75  59  57 W15       29.98F
PRATT          LGT RAIN  73  70  88 S10       30.00S
$$

KSZ066>073-081>083-090>101-280600-
SOUTHEAST KANSAS

CITY           SKY/WX    TMP DP  RH WIND       PRES   REMARKS
CHANUTE        CLOUDY    68  63  84 SE8       29.98F
COFFEYVILLE    MOCLDY    67  64  90 SE7       29.99S
HUTCHINSON     CLOUDY    75  69  81 S13       29.98R
NEWTON         CLOUDY    73  61  64 S9        30.00R
WICHITA INTL   CLOUDY    74  66  76 SW8       29.97R
WICHITA JABRA  CLOUDY    73  64  73 S9        29.97R
WINFIELD       CLOUDY    73  66  78 SE9       29.97R
$$

KSZ007>012-019>026-033>040-048>060-102>105-280600-
NORTHEAST KANSAS

CITY           SKY/WX    TMP DP  RH WIND       PRES   REMARKS
CONCORDIA      CLOUDY    74  62  66 S31G44    29.88F
EMPORIA        CLOUDY    71  61  70 S12       29.96F
LAWRENCE       CLOUDY    70  66  87 SE7       29.98S
MANHATTAN      LGT RAIN  73  69  87 S7        29.92F
OLATHE IND     CLOUDY    69  66  90 S8        30.00S
OLATHE EXE     CLOUDY    68  66  93 S9        29.99R
SALINA         LGT RAIN  75  69  81 SE17      29.92F
TOPEKA BILLARD CLOUDY    71  67  87 SE10      29.96F
TOPEKA FORBES  CLOUDY    71  67  87 SE12      29.96F
$$


USA.gov is the U.S. government's official web portal to all federal, state and local government web resources and services.